Regional Weather Roundup
Issued by NWS

Home | Current Version | Previous Version | Text Only | Print | Product List | Glossary On
Versions: 1 2 3 4 5 6 7 8 9 10 11 12 13 14 15 16 17 18 19 20 21 22 23 24 25 26 27 28 29 30 31 32 33 34 35 36 37 38 39 40 41 42 43 44 45 46 47 48 49 50
000
ASUS43 KLSX 211507
RWRMO

WEATHER SUMMARY FOR MISSOURI
NATIONAL WEATHER SERVICE SPRINGFIELD MO
1000 AM CDT THU SEP 21 2017

NOTE: "FAIR" INDICATES FEW OR NO CLOUDS BELOW 12,000 FEET WITH NO
       SIGNIFICANT WEATHER AND/OR OBSTRUCTIONS TO VISIBILITY.
       CURRENT SKY AND/OR WEATHER CONDITIONS ARE NOT AVAILABLE FOR
       CHILLICOTHE AND FARMINGTON.

MOZ001>031-035>038-043-044-053-054-211600-
...NORTHERN AND WESTERN MISSOURI...

CITY           SKY/WX    TMP DP  RH WIND       PRES   REMARKS
KANSAS CTY INT MOSUNNY   82  73  74 S13       29.93R
KANSAS C DTWN  MOSUNNY   82  72  71 S9        29.93R
LEE`S SUMMIT   MOSUNNY   81  72  74 S15G21    29.95S
ST JOSEPH      SUNNY     83  74  74 S14       29.90S
CHILLICOTHE      N/A     80  74  81 E7        29.98R
KIRKSVILLE     TSTM      69  67  93 E9        30.04R

$$
MOZ066>068-077>081-088>096-101>105-211600-
...SOUTHWEST MISSOURI...

CITY           SKY/WX    TMP DP  RH WIND       PRES   REMARKS
SPRINGFIELD    SUNNY     81  73  76 S9        30.02R
JOPLIN         SUNNY     82  74  76 S14G23    29.98R
BRANSON        MOSUNNY   82  72  69 SE9       30.06R

$$
MOZ032>034-039>042-045>050-055>058-069>072-211600-
...CENTRAL MISSOURI...

CITY           SKY/WX    TMP DP  RH WIND       PRES   REMARKS
COLUMBIA       SUNNY     81  73  76 S10       30.02R
JEFFERSON CITY SUNNY     81  71  71 S8        30.01R
ROLLA          SUNNY     83  72  69 S7        30.05R
SEDALIA        SUNNY     84  74  71 S10       30.00R HX  91
WHITEMAN AFB   PTSUNNY   81  81  99 S17       29.96S HX  92
OSAGE BEACH    SUNNY     81  73  76 S8        30.03R

$$
MOZ051-052-059>065-211600-
...EAST CENTRAL MISSOURI...

CITY           SKY/WX    TMP DP  RH WIND       PRES   REMARKS
ST LOUIS INTL  CLOUDY    83  72  69 CALM      30.04R
SPIRIT OF STL  PTSUNNY   85  74  69 SW6       30.02R HX  92
ST CHARLES     PTSUNNY   79  72  79 CALM      30.02R

$$
MOZ072>076-082>087-097>100-106>115-211600-
...SOUTH CENTRAL AND SOUTHEAST MISSOURI...

CITY           SKY/WX    TMP DP  RH WIND       PRES   REMARKS
CAPE GIRARDEAU SUNNY     82  72  71 VRB5      30.06R
FARMINGTON     SUNNY     81  73  76 SE3       30.08R
POPLAR BLUFF   SUNNY     82  74  76 SW7       30.05S
WEST PLAINS    SUNNY     81  71  71 SW7       30.08R

$$



USA.gov is the U.S. government's official web portal to all federal, state and local government web resources and services.